FW6396 Weather Reports


time (UTC)temp
F
wind
direction
speed
knots
gust
knots
rain 1hr
in
rain 24hr
in
rain mn
in
humidity
%
barometer
mb
20260506124601 52 0 0.0 0.0 0.00 0.00 0.00 57 1016.8
20260506123050 51 0 0.0 0.0 0.00 0.00 0.00 58 1016.8
20260506121551 52 0 0.0 0.0 0.00 0.00 0.00 61 1017.0
20260506120051 52 0 0.0 0.0 0.00 0.00 0.00 62 1017.2
20260506114553 51 0 0.0 0.0 0.00 0.00 0.00 62 1017.1
20260506113047 52 0 0.0 0.0 0.00 0.00 0.00 63 1017.1
20260506111551 52 0 0.0 0.0 0.00 0.00 0.00 65 1017.2
20260506110055 50 0 0.0 0.0 0.00 0.00 0.00 63 1017.3
20260506104550 50 0 0.0 0.0 0.00 0.00 0.00 67 1017.4
20260506103054 52 0 0.0 0.0 0.00 0.00 0.00 60 1017.5
20260506101552 51 0 0.0 0.0 0.00 0.00 0.00 66 1017.6
20260506100056 51 0 0.0 0.0 0.00 0.00 0.00 67 1017.6
20260506094555 51 0 0.0 0.0 0.00 0.00 0.00 64 1017.9
20260506093054 50 0 0.0 0.0 0.00 0.00 0.00 67 1018.1
20260506091600 48 0 0.0 0.0 0.00 0.00 0.00 68 1018.2
20260506090058 47 0 0.0 0.0 0.00 0.00 0.00 69 1018.4
20260506084555 46 0 0.0 0.0 0.00 0.00 0.00 69 1018.5
20260506083055 45 0 0.0 0.0 0.00 0.00 0.00 72 1018.6
20260506081554 45 0 0.0 0.0 0.00 0.00 0.00 74 1018.5
20260506080104 44 0 0.0 0.0 0.00 0.00 0.00 76 1018.7
20260506073054 43 0 0.0 0.0 0.00 0.00 0.00 76 1018.7
20260506071604 43 0 0.0 0.0 0.00 0.00 0.00 76 1018.6
20260506061556 37 0 0.0 0.0 0.00 0.00 0.00 89 1018.5
20260506044553 34 0 0.0 0.0 0.00 0.00 0.00 88 1019.0
20260506043050 34 0 0.0 0.0 0.00 0.00 0.00 88 1019.1
20260506041551 34 0 0.0 0.0 0.00 0.00 0.00 88 1019.2
20260506040051 33 0 0.0 0.0 0.00 0.00 0.00 88 1019.1
20260506034603 33 0 0.0 0.0 0.00 0.00 0.00 88 1019.3
20260506033048 33 0 0.0 0.0 0.00 0.00 0.00 87 1019.5
20260506031556 33 0 0.0 0.0 0.00 0.00 0.00 87 1019.4
20260506030053 33 0 0.0 0.0 0.00 0.00 0.00 87 1019.4
20260506024612 33 0 0.0 0.0 0.00 0.00 0.00 86 1019.4
20260506023050 33 0 0.0 0.0 0.00 0.00 0.00 86 1019.5
20260506021557 33 0 0.0 0.0 0.00 0.00 0.00 85 1019.4
20260506020053 34 0 0.0 0.0 0.00 0.00 0.00 85 1019.5
20260506014552 34 0 0.0 0.0 0.00 0.00 0.00 84 1019.6
20260506013103 34 0 0.0 0.0 0.00 0.00 0.00 84 1019.7
20260506011608 35 0 0.0 0.0 0.00 0.00 0.00 83 1019.8
20260506010056 35 0 0.0 0.0 0.00 0.00 0.00 82 1019.8
20260506004551 36 0 0.0 0.0 0.00 0.00 0.00 81 1019.8
20260506003053 37 0 0.0 0.0 0.00 0.00 0.00 79 1020.0
20260506001555 37 0 0.0 0.0 0.00 0.00 0.00 78 1020.0
20260506000055 38 0 0.0 0.0 0.00 0.00 0.00 78 1020.0
20260505234548 39 0 0.0 0.0 0.00 0.00 0.00 77 1020.2
20260505233050 40 0 0.0 0.0 0.00 0.00 0.00 77 1020.2
20260505231552 40 0 0.0 0.0 0.00 0.00 0.00 77 1020.1
20260505230104 41 0 0.0 0.0 0.00 0.00 0.00 75 1020.4
20260505224551 41 0 0.0 0.0 0.00 0.00 0.00 75 1020.3
20260505223106 42 0 0.0 0.0 0.00 0.00 0.00 74 1020.4
20260505221551 42 0 0.0 0.0 0.00 0.00 0.00 74 1020.5
20260505220056 42 0 0.0 0.0 0.00 0.00 0.00 73 1020.5
20260505214548 42 0 0.0 0.0 0.00 0.00 0.00 72 1020.5
20260505213058 43 0 0.0 0.0 0.00 0.00 0.00 72 1020.5
20260505211550 43 0 0.0 0.0 0.00 0.00 0.00 71 1020.4
20260505210047 43 0 0.0 0.0 0.00 0.00 0.00 70 1020.3
20260505204601 43 0 0.0 0.0 0.00 0.00 0.00 70 1020.5
20260505203053 43 0 0.0 0.0 0.00 0.00 0.00 70 1020.6
20260505201552 44 0 0.0 0.0 0.00 0.00 0.00 68 1020.6
20260505200050 44 0 0.0 0.0 0.00 0.00 0.00 67 1020.4
20260505194603 45 0 0.0 0.0 0.00 0.00 0.00 66 1020.4
20260505193052 45 0 0.0 0.0 0.00 0.00 0.00 63 1020.3
20260505191558 46 0 0.0 0.0 0.00 0.00 0.00 63 1020.3
20260505190050 46 0 0.0 0.0 0.00 0.00 0.00 61 1020.1
20260505184552 46 0 0.0 0.0 0.00 0.00 0.00 60 1020.1
20260505183059 47 0 0.0 0.0 0.00 0.00 0.00 58 1020.1
20260505181555 47 0 0.0 0.0 0.00 0.00 0.00 58 1020.1
20260505180056 48 0 0.0 0.0 0.00 0.00 0.00 56 1020.2
20260505174552 48 0 0.0 0.0 0.00 0.00 0.00 55 1020.3
20260505173052 48 0 0.0 0.0 0.00 0.00 0.00 55 1020.2
20260505171552 49 0 0.0 0.0 0.00 0.00 0.00 52 1020.1
20260505170051 50 0 0.0 0.0 0.00 0.00 0.00 54 1020.1
20260505164600 50 0 0.0 0.0 0.00 0.00 0.00 51 1020.1
20260505163100 50 0 0.0 0.0 0.00 0.00 0.00 51 1020.2
20260505161550 50 0 0.0 0.0 0.00 0.00 0.00 47 1020.2
20260505153107 51 0 0.0 0.0 0.00 0.00 0.00 48 1020.1
20260505151557 51 0 0.0 0.0 0.00 0.00 0.00 47 1020.2